SCP
0 0 0 0 0 0 0 0 0 0 0 0 0 0 0 0 0 0 0 0 0 0 0 0 0 0 0 0 0 0 0 0 0 0 0 0 0 0 0 0 0 0 0
0 0 0 0 0 0 0 0 0 0 0 0 0 0 0 0 0 0 0 0 0 0 0 0 0 0 0 0 0 0 0 0 0 0 0 0 0 0 0 0 0 0 0
0 0 0 0 0 0 0 0 0 0 0 0 0 0 0 0 0 0 0 0 0 0 0 0 0 0 0 0 0 0 0 0 0 0 0 0 0 0 0 0 0 0 0
0 0 0 0 0 0 0 0 0 0 0 0 0 0 0 0 0 0 0 0 0 0 0 0 0 0 0 0 0 0 0 0 0 0 0 0 0 0 0 0 0 0 0
0 0 0 0 0 0 0 0 0 0 0 0 0 0 0 0 0 0 0 0 0 0 0 0 0 0 0 0 0 0 0 0 0 0 0 0 0 0 0 0 0 0 0
0 0 0 0 0 0 0 0 0 0 0 0 0 0 0 0 0 0 0 0 0 0 0 0 0 0 0 0 0 0 0 0 0 0 0 0 0 0 0 0 0 0 0
0 0 0 0 0 0 0 0 0 0 0 0 0 0 0 0 0 0 0 0 0 0 0 0 0 0 0 0 0 0 0 0 0 0 0 0 0 0 0 0 0 0 0
0 0 0 0 0 0 0 0 0 0 0 0 0 0 0 0 0 0 0 0 0 0 0 0 0 0 0 0 0 0 0 0 0 0 0 0 0 0 0 0 0 0 0
0 0 0 0 0 0 0 0 0 0 0 0 0 0 0 0 0 0 0 0 0 0 0 0 0 0 0 0 0 0 0 0 0 0 0 0 0 0 0 0 0 0 0
0 0 0 0 0 0 0 0 0 0 0 0 0 0 0 0 0 0 0 0 0 0 0 0 0 0 0 0 0 0 0 0 0 0 0 0 0 0 0 0 0 0 0
0 0 0 0 0 0 0 0 0 0 0 0 0 0 0 0 0 0 0 0 0 0 0 0 0 0 0 0 0 0 0 0 0 0 0 0 0 0 0 0 0 0 0
0 0 0 0 0 0 0 0 0 0 0 0 0 0 0 0 0 0 0 0 0 0 0 0 0 0 0 0 0 0 0 0 0 0 0 0 0 0 0 0 0 0 0
0 0 0 0 0 0 0 0 0 0 0 0 0 0 0 0 0 0 0 0 0 0 0 0 0 0 0 0 0 0 0 0 0 0 0 0 0 0 0 0 0 0 0
0 0 0 0 0 0 0 0 0 0 0 0 0 0 0 0 0 0 0 0 0 0 0 0 0 0 0 0 0 0 0 0 0 0 0 0 0 0 0 0 0 0 0
0 0 0 0 0 0 0 0 0 0 0 0 0 0 0 0 0 0 0 0 0 0 0 0 0 0 0 0 0 0 0 0 0 0 0 0 0 0 0 0 0 0 0
0 0 0 0 0 0 0 0 0 0 0 0 0 0 0 0 0 0 0 0 0 0 0 0 0 0 0 0 0 0 0 0 0 0 0 0 0 0 0 0 0 0 0
0 0 0 0 0 0 0 0 0 0 0 0 0 0 0 0 0 0 0 0 0 0 0 0 0 0 0 0 0 0 0 0 0 0 0 0 0 0 0 0 0 0 0
0 0 0 0 0 0 0 0 0 0 0 0 0 0 0 0 0 0 0 0 0 0 0 0 0 0 0 0 0 0 0 0 0 0 0 0 0 0 0 0 0 0 0
0 0 0 0 0 0 0 0 0 0 0 0 0 0 0 0 0 0 0 0 0 0 0 0 0 0 0 0 0 0 0 0 0 0 0 0 0 0 0 0 0 0 0
0 0 0 0 0 0 0 0 0 0 0 0 0 0 0 0 0 0 0 0 0 0 0 0 0 0 0 0 0 0 0 0 0 0 0 0 0 0 0 0 0 0 0
0 0 0 0 0 0 0 0 0 0 0 0 0 0 0 0 0 0 0 0 0 0 0 0 0 0 0 0 0 0 0 0 0 0 0 0 0 0 0 0 0 0 0
0 1 1 1 1 0 0 0 0 0 0 0 0 0 0 0 0 0 0 0 0 0 0 0 0 0 0 0 0 0 0 0 0 0 0 0 0 0 0 0 0 0 0
0 1 1 1 1 1 1 1 0 0 0 0 0 0 0 0 0 0 0 0 0 0 0 0 0 0 0 0 0 0 0 0 0 0 0 0 0 0 0 0 0 0 0
1 1 1 1 1 1 1 1 1 0 0 0 0 0 0 0 0 0 0 0 0 0 0 0 0 0 0 0 0 0 0 0 0 0 0 0 0 0 0 0 0 0 0
1 1 1 1 1 1 1 1 1 1 0 0 0 0 0 0 0 0 0 0 0 0 0 0 0 0 0 0 0 0 0 0 0 0 0 0 0 0 0 0 0 0 0
1 1 1 1 1 1 1 1 1 1 0 0 0 0 0 0 0 0 0 0 0 0 0 0 0 0 0 0 0 0 0 0 0 0 0 0 0 0 0 0 0 0 0
Wind_Speed
4 6 10 9 8 8 8 8 8 8 8 8 8 8 8 8 8 8 7 7 7 7 8 8 8 10 12 11 11 12 12 12 11 11 11 11 10 10 10 10 9 7 10
8 8 11 10 9 8 8 8 8 8 8 8 8 8 8 7 7 7 7 7 7 7 8 8 9 11 11 11 11 11 11 11 10 10 9 9 9 10 9 9 9 6 10
9 7 9 11 9 9 8 8 8 8 7 7 7 7 7 7 7 7 7 6 6 7 8 9 9 10 10 10 10 10 10 10 9 9 8 5 6 9 8 9 9 9 9
9 6 7 11 10 9 8 8 7 7 7 7 7 7 6 6 6 6 6 6 6 7 7 8 9 9 8 9 9 9 9 9 9 8 5 4 4 8 8 8 8 9 9
8 6 7 12 10 9 8 8 7 7 6 6 6 6 6 6 5 5 5 5 5 6 7 7 8 8 8 8 8 9 9 9 9 6 4 4 3 6 7 8 9 9 9
7 6 7 12 10 9 8 8 7 6 6 5 5 5 5 5 4 4 4 5 5 5 6 7 7 7 7 7 8 9 9 9 7 4 3 3 3 6 7 8 9 9 9
6 5 6 11 10 9 8 8 7 6 5 5 4 4 4 3 3 3 4 4 4 5 5 5 5 5 5 6 7 8 9 9 6 4 3 3 4 7 7 8 9 9 10
7 5 4 9 10 9 8 7 6 6 5 4 3 3 3 2 2 2 2 3 4 4 4 4 4 4 4 6 6 7 8 7 6 4 3 2 5 7 8 7 8 9 9
6 5 3 4 6 8 8 7 6 5 4 4 3 3 2 2 1 1 2 4 4 3 3 3 3 3 4 5 6 6 7 7 5 3 3 2 5 7 7 7 8 8 9
4 4 3 3 2 2 3 6 6 5 4 3 2 2 2 1 1 2 2 2 3 3 3 3 3 4 5 5 6 6 6 5 3 3 1 2 5 6 7 7 7 7 8
5 3 3 3 2 2 2 4 4 5 4 3 1 1 1 2 2 2 2 2 2 3 3 3 3 4 5 5 5 6 5 2 2 2 1 4 5 6 6 7 7 7 7
8 6 4 4 3 2 2 2 1 1 1 1 1 1 1 1 2 2 2 3 2 2 3 3 3 4 3 2 3 4 2 2 2 1 2 5 5 6 6 7 7 7 7
7 6 5 4 4 3 2 2 1 1 1 1 0 1 1 1 2 2 2 2 2 2 2 2 2 2 2 2 2 2 2 2 1 1 2 4 5 6 6 7 6 6 6
6 7 6 5 4 4 2 2 1 1 1 1 0 1 1 1 1 1 1 2 1 1 1 1 1 2 2 2 3 2 2 1 1 0 1 3 4 5 6 7 6 6 6
7 7 6 5 5 4 3 2 2 1 1 1 1 0 1 1 0 1 1 1 1 1 1 1 1 2 2 2 2 2 2 2 1 1 1 3 4 4 5 5 6 5 5
8 7 6 5 5 4 3 2 2 2 2 1 1 1 1 1 1 0 1 1 1 1 1 1 1 2 1 1 2 2 2 2 1 1 0 0 2 2 3 4 5 5 5
8 7 6 6 5 5 4 3 2 2 2 1 1 1 1 1 1 1 1 0 0 1 1 2 2 2 2 2 2 2 1 1 1 1 0 0 0 1 2 3 3 4 4
7 6 6 6 6 5 4 3 2 2 2 1 1 1 1 1 2 1 1 0 1 1 1 2 2 2 2 1 1 1 1 1 1 1 0 0 0 1 1 3 2 2 3
8 7 7 6 6 5 4 3 2 2 1 1 1 1 1 1 2 2 1 1 1 1 2 2 2 2 1 1 1 1 1 0 0 0 0 1 0 0 0 1 2 1 2
6 6 6 5 5 5 4 3 2 1 1 0 1 1 1 1 2 2 1 1 2 2 2 2 2 2 1 1 1 2 1 1 1 0 0 0 0 0 0 0 1 1 2
6 6 6 6 5 5 3 3 2 2 1 1 1 1 1 1 2 2 1 2 2 2 2 2 2 2 1 1 2 2 2 1 1 0 0 0 0 1 0 0 0 0 1
7 7 7 7 7 6 4 3 2 2 1 1 0 0 1 1 1 2 2 2 2 2 2 2 2 2 1 1 2 1 1 2 2 1 0 0 1 0 0 0 0 1 1
7 7 7 7 7 6 5 3 3 2 1 1 0 0 1 1 1 1 2 2 2 3 2 2 3 3 2 1 1 2 2 1 1 1 1 1 1 1 1 1 1 1 1
7 6 6 6 6 6 6 5 5 4 3 2 1 1 1 1 1 1 1 2 2 2 2 2 2 2 2 1 0 0 1 2 1 1 1 1 1 1 1 1 1 1 1
5 6 5 5 5 5 5 6 5 4 3 1 1 1 0 0 1 1 1 2 2 2 2 2 2 2 2 2 1 1 1 0 1 1 1 1 1 1 1 1 1 1 1
4 5 5 6 5 5 5 5 6 5 4 3 2 2 1 1 1 1 1 1 2 2 2 2 2 2 2 2 1 1 2 2 2 2 2 1 1 1 1 1 1 1 1
Wind_Direction
167 165 162 151 141 132 125 119 114 109 105 103 102 100 97 95 95 96 93 92 88 88 97 106 108 117 125 126 127 128 126 125 127 129 134 134 134 135 139 138 134 128 131
152 158 161 154 147 140 133 125 120 114 109 106 104 102 99 96 95 96 95 95 93 89 96 107 109 113 120 125 128 130 129 128 129 129 130 132 136 137 141 140 136 130 135
143 154 159 156 152 146 139 131 125 119 114 110 106 104 101 98 95 95 97 97 95 94 97 107 114 116 120 124 129 132 132 130 130 130 123 114 125 137 142 145 141 138 139
143 150 157 158 156 150 143 137 131 124 119 114 110 107 105 102 98 97 97 98 98 99 100 108 113 117 122 125 127 132 135 135 133 133 117 111 121 140 147 146 144 144 142
143 151 166 160 158 153 149 144 139 131 125 120 115 111 109 104 102 100 97 97 100 103 104 105 111 117 121 124 128 129 131 131 125 120 110 113 118 141 146 148 147 146 145
149 157 171 161 160 157 154 152 148 140 133 126 121 118 116 113 109 106 102 100 101 105 108 109 111 116 121 126 128 127 127 125 119 108 112 124 129 142 149 148 148 148 149
152 158 171 165 164 163 160 157 154 146 138 129 123 121 119 115 113 111 112 112 110 110 112 112 113 112 122 121 122 128 128 130 120 113 117 129 144 151 157 152 149 151 153
151 155 168 170 168 168 165 161 159 154 147 139 128 119 116 107 98 104 130 133 121 118 115 114 117 118 122 124 124 129 133 134 121 121 122 136 156 161 160 158 155 155 155
147 153 166 172 176 178 175 173 170 166 157 148 137 124 109 93 69 58 110 130 124 126 126 120 119 121 119 121 123 124 131 126 113 117 128 135 152 160 158 160 158 158 156
150 161 170 173 169 168 178 182 177 169 162 156 147 129 97 60 25 46 84 120 127 129 133 129 126 126 121 120 126 123 122 114 104 106 111 139 154 156 157 156 161 164 161
173 177 176 177 169 162 171 183 176 173 173 166 162 149 73 15 7 19 55 93 119 126 131 129 127 123 119 119 124 124 113 103 111 123 135 140 154 164 161 159 166 164 163
187 188 186 182 176 166 176 157 137 150 140 112 59 33 38 27 12 30 38 70 88 111 120 118 121 113 102 94 104 103 94 108 118 141 154 156 159 162 159 160 163 159 160
183 184 185 185 177 171 171 143 124 113 111 110 91 47 58 43 26 19 14 22 30 49 50 62 77 77 89 98 96 96 104 107 103 130 156 163 170 173 172 169 168 164 164
177 186 181 179 174 176 167 158 143 143 155 162 147 100 88 60 41 24 18 17 32 40 52 62 77 90 101 109 115 117 110 109 113 112 170 173 177 181 181 179 173 168 162
186 189 183 177 176 172 164 169 161 169 174 173 162 152 134 123 85 57 23 26 31 45 71 79 80 99 105 110 117 120 119 113 112 124 173 179 181 181 181 177 173 170 168
190 189 178 180 180 171 170 170 169 171 171 166 178 183 153 147 134 84 52 43 33 41 89 108 106 95 89 101 103 110 120 121 106 106 120 187 187 187 187 177 175 182 182
184 181 177 178 174 175 175 175 166 162 159 170 190 187 172 153 143 125 104 77 50 71 95 100 86 86 91 89 92 94 104 121 128 130 119 56 267 222 205 196 182 185 185
173 171 179 181 174 176 171 165 152 151 154 170 187 178 177 155 145 140 138 137 102 100 102 104 94 89 79 77 78 77 85 116 126 166 150 297 305 287 229 205 183 181 187
174 169 174 177 170 170 162 150 141 139 149 170 188 198 203 173 155 153 160 148 118 110 107 122 105 112 110 86 89 66 56 54 20 51 273 272 255 256 258 194 189 195 205
164 165 171 169 160 152 144 129 119 117 124 137 193 221 198 178 154 152 153 139 130 123 113 113 117 101 113 108 76 42 21 8 8 359 300 317 345 256 266 178 187 227 236
157 163 169 166 164 155 155 158 160 180 181 191 198 202 188 173 156 153 152 141 138 141 148 143 129 118 112 105 81 34 11 24 28 8 3 6 325 304 265 179 178 238 267
174 175 175 174 170 171 168 161 160 148 167 185 181 153 180 182 170 161 148 148 146 139 140 150 136 133 138 132 122 102 22 353 353 1 11 319 313 329 288 237 215 230 255
179 182 186 185 178 173 160 139 112 91 58 78 112 232 240 194 177 152 153 152 152 151 163 177 165 154 162 159 137 142 149 212 302 331 342 1 344 327 291 252 221 229 233
186 179 180 178 177 171 160 158 160 169 180 197 196 201 202 186 207 175 150 152 156 159 168 189 164 155 151 166 169 142 175 165 162 287 325 352 335 302 279 266 252 239 236
173 170 172 166 170 169 169 168 165 172 178 161 152 164 190 222 227 196 158 152 166 170 171 169 157 163 167 172 176 165 147 103 166 174 258 306 317 286 255 243 241 245 243
157 159 162 164 171 167 168 168 171 173 169 167 178 192 210 230 242 218 161 159 168 174 172 172 170 171 181 174 180 179 171 176 188 181 210 261 280 290 282 249 243 249 249